Location: ????????
(38.4362°N, 22.8767°E)
Time: 14:56:19
(UTC+00:00)

ACS3 Solar Sail - Pass Details

Date: 29 June 2024
Orbit: 993 x 1023 km, 97.4° (Epoch: 19 July)

Event Time Altitude Azimuth Distance (km) Brightness Sun altitude
Exits shadow 18:17:51 - 110° (ESE) 3,306 6.9 -4.4°
Reaches altitude 10° 18:20:03 10° 96° (E) 2,759 6.6 -4.7°
Maximum altitude 18:23:30 16° 62° (ENE) 2,367 6.6 -5.3°
Drops below altitude 10° 18:26:58 10° 27° (NNE) 2,763 7.3 -5.8°
Sets 18:30:30 0° 7° (N) 3,717 8.3 -6.4°
